[Date Prev][Date Next][Thread Prev][Thread Next] - [Date Index][Thread Index][Author Index]

2 Line ISS Keps 10-30



ISS 
1 25544U 98067A   04304.45243756  .00030972  00000-0  25657-3 0   302
2 25544  51.6372 355.5655 0008344 294.3443 200.4379 15.69913578339563
----
Via the sarex mailing list at AMSAT.ORG courtesy of AMSAT-NA.
To unsubscribe, send "unsubscribe sarex" to Majordomo@amsat.org



AMSAT Top AMSAT Home